Time,TemperatureF,DewpointF,PressureIn,WindDirection,WindDirectionDegrees,WindSpeedMPH,WindSpeedGustMPH,Humidity,HourlyPrecipIn,Conditions,Clouds,dailyrainin,SoftwareType,DateUTC
2013-01-07 00:10:00,31.5,26.0,30.24,West,267,0.0,0.0,80,0.00,,,0.00,Wunderground v.1.12,2013-01-07 05:10:00,
2013-01-07 00:20:00,31.5,26.0,30.24,West,268,0.0,0.0,80,0.00,,,0.00,Wunderground v.1.12,2013-01-07 05:20:00,
2013-01-07 00:30:00,31.5,26.0,30.25,N/A,-737280,0.0,0.0,80,0.00,,,0.00,Wunderground v.1.12,2013-01-07 05:30:00,
2013-01-07 00:40:00,31.5,26.0,30.25,West,267,0.0,0.0,80,0.00,,,0.00,Wunderground v.1.12,2013-01-07 05:40:00,
2013-01-07 00:50:00,31.5,26.0,30.25,West,267,0.0,0.0,80,0.00,,,0.00,Wunderground v.1.12,2013-01-07 05:50:00,
2013-01-07 01:00:00,31.5,25.7,30.25,N/A,-737280,0.0,0.0,79,0.00,,,0.00,Wunderground v.1.12,2013-01-07 06:00:00,
2013-01-07 01:10:00,31.5,25.7,30.25,West,267,0.0,0.0,79,0.00,,,0.00,Wunderground v.1.12,2013-01-07 06:10:00,
2013-01-07 01:20:00,31.5,25.7,30.25,West,267,0.0,0.0,79,0.00,,,0.00,Wunderground v.1.12,2013-01-07 06:20:00,
2013-01-07 01:30:00,31.5,25.7,30.26,N/A,-737280,0.0,0.0,79,0.00,,,0.00,Wunderground v.1.12,2013-01-07 06:30:00,
2013-01-07 01:40:00,31.5,25.7,30.26,West,267,0.0,0.0,79,0.00,,,0.00,Wunderground v.1.12,2013-01-07 06:40:00,
2013-01-07 01:50:00,31.3,25.2,30.26,West,267,0.0,0.0,78,0.00,,,0.00,Wunderground v.1.12,2013-01-07 06:50:00,
2013-01-07 02:00:00,31.3,25.2,30.26,West,270,0.0,2.0,78,0.00,,,0.00,Wunderground v.1.12,2013-01-07 07:00:00,
2013-01-07 02:10:00,31.3,24.9,30.27,West,267,0.0,0.0,77,0.00,,,0.00,Wunderground v.1.12,2013-01-07 07:10:00,
2013-01-07 02:20:00,31.3,24.6,30.28,West,267,0.0,2.0,76,0.00,,,0.00,Wunderground v.1.12,2013-01-07 07:20:00,
2013-01-07 02:30:00,31.3,24.3,30.28,West,270,0.0,3.0,75,0.00,,,0.00,Wunderground v.1.12,2013-01-07 07:30:00,
2013-01-07 02:40:00,31.3,23.6,30.28,West,272,0.0,0.0,73,0.00,,,0.00,Wunderground v.1.12,2013-01-07 07:40:00,
2013-01-07 02:50:00,31.3,23.3,30.28,West,272,0.0,0.0,72,0.00,,,0.00,Wunderground v.1.12,2013-01-07 07:50:00,
2013-01-07 03:00:00,31.2,23.2,30.28,N/A,-737280,0.0,0.0,72,0.00,,,0.00,Wunderground v.1.12,2013-01-07 08:00:00,
2013-01-07 03:10:00,31.0,23.0,30.28,West,272,0.0,0.0,72,0.00,,,0.00,Wunderground v.1.12,2013-01-07 08:10:00,
2013-01-07 03:20:00,30.7,22.7,30.28,N/A,-737280,0.0,0.0,72,0.00,,,0.00,Wunderground v.1.12,2013-01-07 08:20:00,
2013-01-07 03:30:00,30.3,22.7,30.28,N/A,-737280,0.0,0.0,73,0.00,,,0.00,Wunderground v.1.12,2013-01-07 08:30:00,
2013-01-07 03:40:00,30.3,23.0,30.28,West,272,0.0,0.0,74,0.00,,,0.00,Wunderground v.1.12,2013-01-07 08:40:00,
2013-01-07 04:00:00,30.1,23.1,30.28,N/A,-737280,0.0,0.0,75,0.00,,,0.00,Wunderground v.1.12,2013-01-07 09:00:00,
2013-01-07 04:10:00,30.1,23.4,30.28,West,272,0.0,0.0,76,0.00,,,0.00,Wunderground v.1.12,2013-01-07 09:10:00,
2013-01-07 04:20:00,30.3,24.0,30.30,West,272,0.0,0.0,77,0.00,,,0.00,Wunderground v.1.12,2013-01-07 09:20:00,
2013-01-07 04:30:00,30.6,24.2,30.30,N/A,-737280,0.0,0.0,77,0.00,,,0.00,Wunderground v.1.12,2013-01-07 09:30:00,
2013-01-07 04:40:00,30.9,24.2,30.30,West,272,0.0,0.0,76,0.00,,,0.00,Wunderground v.1.12,2013-01-07 09:40:00,
2013-01-07 04:50:00,31.0,24.3,30.30,N/A,-737280,0.0,0.0,76,0.00,,,0.00,Wunderground v.1.12,2013-01-07 09:50:00,
2013-01-07 05:10:00,31.5,24.8,30.31,West,270,0.0,3.0,76,0.00,,,0.00,Wunderground v.1.12,2013-01-07 10:10:00,
2013-01-07 05:20:00,31.8,25.1,30.31,West,272,1.0,1.0,76,0.00,,,0.00,Wunderground v.1.12,2013-01-07 10:20:00,
2013-01-07 05:30:00,31.9,25.2,30.31,West,270,1.0,3.0,76,0.00,,,0.00,Wunderground v.1.12,2013-01-07 10:30:00,
2013-01-07 05:40:00,31.9,24.9,30.31,West,267,0.0,0.0,75,0.00,,,0.00,Wunderground v.1.12,2013-01-07 10:40:00,
2013-01-07 05:50:00,31.9,24.6,30.31,West,260,2.0,2.0,74,0.00,,,0.00,Wunderground v.1.12,2013-01-07 10:50:00,
2013-01-07 06:00:00,31.9,24.2,30.32,West,270,2.0,6.0,73,0.00,,,0.00,Wunderground v.1.12,2013-01-07 11:00:00,
2013-01-07 06:10:00,31.9,23.6,30.32,West,274,1.0,2.0,71,0.00,,,0.00,Wunderground v.1.12,2013-01-07 11:10:00,
2013-01-07 06:20:00,31.9,23.6,30.32,West,263,1.0,1.0,71,0.00,,,0.00,Wunderground v.1.12,2013-01-07 11:20:00,
2013-01-07 06:30:00,31.9,23.2,30.32,West,270,0.0,3.0,70,0.00,,,0.00,Wunderground v.1.12,2013-01-07 11:30:00,
2013-01-07 06:40:00,31.9,22.9,30.32,West,263,0.0,0.0,69,0.00,,,0.00,Wunderground v.1.12,2013-01-07 11:40:00,
2013-01-07 06:50:00,31.9,22.5,30.32,West,263,0.0,2.0,68,0.00,,,0.00,Wunderground v.1.12,2013-01-07 11:50:00,
2013-01-07 07:00:00,31.8,22.1,30.33,West,270,0.0,3.0,67,0.00,,,0.00,Wunderground v.1.12,2013-01-07 12:00:00,
2013-01-07 07:10:00,31.5,21.8,30.33,West,263,0.0,0.0,67,0.00,,,0.00,Wunderground v.1.12,2013-01-07 12:10:00,
2013-01-07 07:20:00,31.3,21.6,30.33,West,270,0.0,3.0,67,0.00,,,0.00,Wunderground v.1.12,2013-01-07 12:20:00,
2013-01-07 07:30:00,30.7,21.7,30.34,West,270,0.0,3.0,69,0.00,,,0.00,Wunderground v.1.12,2013-01-07 12:30:00,
2013-01-07 07:40:00,30.3,21.7,30.34,West,260,1.0,1.0,70,0.00,,,0.00,Wunderground v.1.12,2013-01-07 12:40:00,
2013-01-07 07:50:00,30.0,21.7,30.34,West,261,0.0,0.0,71,0.00,,,0.00,Wunderground v.1.12,2013-01-07 12:50:00,
2013-01-07 08:00:00,29.7,21.4,30.35,West,270,0.0,2.0,71,0.00,,,0.00,Wunderground v.1.12,2013-01-07 13:00:00,
2013-01-07 08:10:00,29.4,21.5,30.35,West,260,0.0,0.0,72,0.00,,,0.00,Wunderground v.1.12,2013-01-07 13:10:00,
2013-01-07 08:20:00,29.1,21.5,30.35,West,261,0.0,0.0,73,0.00,,,0.00,Wunderground v.1.12,2013-01-07 13:20:00,
2013-01-07 08:30:00,28.8,21.6,30.36,N/A,-737280,0.0,0.0,74,0.00,,,0.00,Wunderground v.1.12,2013-01-07 13:30:00,
2013-01-07 08:40:00,28.7,21.8,30.36,WSW,239,1.0,1.0,75,0.00,,,0.00,Wunderground v.1.12,2013-01-07 13:40:00,
2013-01-07 08:50:00,28.8,21.9,30.36,SW,226,2.0,2.0,75,0.00,,,0.00,Wunderground v.1.12,2013-01-07 13:50:00,
2013-01-07 09:00:00,29.1,22.2,30.37,SW,225,2.0,6.0,75,0.00,,,0.00,Wunderground v.1.12,2013-01-07 14:00:00,
2013-01-07 09:10:00,29.4,22.5,30.37,SW,224,3.0,3.0,75,0.00,,,0.00,Wunderground v.1.12,2013-01-07 14:10:00,
2013-01-07 09:20:00,29.7,22.4,30.37,SW,223,4.0,6.0,74,0.00,,,0.00,Wunderground v.1.12,2013-01-07 14:20:00,
2013-01-07 09:30:00,30.4,23.1,30.37,SW,225,4.0,10.0,74,0.00,,,0.00,Wunderground v.1.12,2013-01-07 14:30:00,
2013-01-07 09:40:00,31.2,23.2,30.37,West,264,4.0,4.0,72,0.00,,,0.00,Wunderground v.1.12,2013-01-07 14:40:00,
2013-01-07 09:50:00,31.8,23.5,30.37,SW,232,5.0,5.0,71,0.00,,,0.00,Wunderground v.1.12,2013-01-07 14:50:00,
2013-01-07 10:00:00,32.1,23.8,30.37,SW,225,6.0,13.0,71,0.00,,,0.00,Wunderground v.1.12,2013-01-07 15:00:00,
2013-01-07 10:10:00,32.5,24.1,30.37,SW,226,4.0,7.0,71,0.00,,,0.00,Wunderground v.1.12,2013-01-07 15:10:00,
2013-01-07 10:20:00,32.8,24.1,30.37,SW,225,5.0,11.0,70,0.00,,,0.00,Wunderground v.1.12,2013-01-07 15:20:00,
2013-01-07 10:30:00,33.4,24.3,30.37,WSW,248,5.0,11.0,69,0.00,,,0.00,Wunderground v.1.12,2013-01-07 15:30:00,
2013-01-07 10:40:00,33.7,23.9,30.37,SSW,210,5.0,5.0,67,0.00,,,0.00,Wunderground v.1.12,2013-01-07 15:40:00,
2013-01-07 10:50:00,34.0,24.2,30.37,SW,225,5.0,10.0,67,0.00,,,0.00,Wunderground v.1.12,2013-01-07 15:50:00,
2013-01-07 11:00:00,34.0,23.8,30.36,SSW,203,7.0,17.0,66,0.00,,,0.00,Wunderground v.1.12,2013-01-07 16:00:00,
2013-01-07 11:10:00,34.1,23.9,30.36,SSW,209,6.0,9.0,66,0.00,,,0.00,Wunderground v.1.12,2013-01-07 16:10:00,
2013-01-07 11:20:00,34.6,24.0,30.35,SSW,196,6.0,6.0,65,0.00,,,0.00,Wunderground v.1.12,2013-01-07 16:20:00,
2013-01-07 11:30:00,35.0,24.0,30.35,SW,225,6.0,18.0,64,0.00,,,0.00,Wunderground v.1.12,2013-01-07 16:30:00,
2013-01-07 11:40:00,35.2,24.2,30.35,SW,222,7.0,7.0,64,0.00,,,0.00,Wunderground v.1.12,2013-01-07 16:40:00,
2013-01-07 11:50:00,35.0,24.0,30.34,South,178,8.0,9.0,64,0.00,,,0.00,Wunderground v.1.12,2013-01-07 16:50:00,
2013-01-07 12:00:00,35.0,23.7,30.33,SSW,203,8.0,20.0,63,0.00,,,0.00,Wunderground v.1.12,2013-01-07 17:00:00,
2013-01-07 12:10:00,34.7,23.4,30.33,SSW,212,10.0,12.0,63,0.00,,,0.00,Wunderground v.1.12,2013-01-07 17:10:00,
2013-01-07 12:20:00,34.7,23.8,30.32,SW,225,9.0,20.0,64,0.00,,,0.00,Wunderground v.1.12,2013-01-07 17:20:00,
2013-01-07 12:30:00,35.2,24.2,30.31,SW,225,7.0,16.0,64,0.00,,,0.00,Wunderground v.1.12,2013-01-07 17:30:00,
2013-01-07 12:40:00,34.9,23.9,30.31,SSW,202,9.0,14.0,64,0.00,,,0.00,Wunderground v.1.12,2013-01-07 17:40:00,
2013-01-07 12:50:00,35.0,23.7,30.30,SW,217,8.0,8.0,63,0.00,,,0.00,Wunderground v.1.12,2013-01-07 17:50:00,
2013-01-07 13:10:00,34.9,23.9,30.30,SW,236,9.0,9.0,64,0.00,,,0.00,Wunderground v.1.12,2013-01-07 18:10:00,
2013-01-07 13:20:00,35.5,24.1,30.29,SSW,192,6.0,6.0,63,0.00,,,0.00,Wunderground v.1.12,2013-01-07 18:20:00,
2013-01-07 13:30:00,35.3,24.0,30.29,SSW,203,7.0,19.0,63,0.00,,,0.00,Wunderground v.1.12,2013-01-07 18:30:00,
2013-01-07 13:40:00,35.3,24.0,30.29,WSW,244,9.0,13.0,63,0.00,,,0.00,Wunderground v.1.12,2013-01-07 18:40:00,
2013-01-07 13:50:00,35.6,24.2,30.28,SW,227,7.0,11.0,63,0.00,,,0.00,Wunderground v.1.12,2013-01-07 18:50:00,
2013-01-07 14:00:00,35.8,24.0,30.27,SW,225,8.0,19.0,62,0.00,,,0.00,Wunderground v.1.12,2013-01-07 19:00:00,
2013-01-07 14:10:00,35.8,24.4,30.27,SSW,196,8.0,8.0,63,0.00,,,0.00,Wunderground v.1.12,2013-01-07 19:10:00,
2013-01-07 14:20:00,35.8,24.4,30.27,WSW,248,8.0,10.0,63,0.00,,,0.00,Wunderground v.1.12,2013-01-07 19:20:00,
2013-01-07 14:30:00,35.3,24.3,30.26,SSW,203,9.0,18.0,64,0.00,,,0.00,Wunderground v.1.12,2013-01-07 19:30:00,
2013-01-07 14:40:00,35.9,24.5,30.26,SW,232,6.0,6.0,63,0.00,,,0.00,Wunderground v.1.12,2013-01-07 19:40:00,
2013-01-07 14:50:00,36.0,24.6,30.26,SSW,203,6.0,21.0,63,0.00,,,0.00,Wunderground v.1.12,2013-01-07 19:50:00,
2013-01-07 15:00:00,35.6,24.2,30.25,SSW,203,8.0,20.0,63,0.00,,,0.00,Wunderground v.1.12,2013-01-07 20:00:00,
2013-01-07 15:10:00,35.6,24.6,30.25,South,191,8.0,8.0,64,0.00,,,0.00,Wunderground v.1.12,2013-01-07 20:10:00,
2013-01-07 15:20:00,35.6,24.6,30.25,South,175,8.0,8.0,64,0.00,,,0.00,Wunderground v.1.12,2013-01-07 20:20:00,
2013-01-07 15:40:00,35.3,24.3,30.24,SSW,195,10.0,12.0,64,0.00,,,0.00,Wunderground v.1.12,2013-01-07 20:40:00,
2013-01-07 15:50:00,35.2,24.2,30.23,SSW,202,9.0,13.0,64,0.00,,,0.00,Wunderground v.1.12,2013-01-07 20:50:00,
2013-01-07 16:00:00,35.2,24.2,30.23,SSW,203,8.0,24.0,64,0.00,,,0.00,Wunderground v.1.12,2013-01-07 21:00:00,
2013-01-07 16:10:00,35.3,24.3,30.23,SW,227,7.0,7.0,64,0.00,,,0.00,Wunderground v.1.12,2013-01-07 21:10:00,
2013-01-07 16:20:00,35.2,24.2,30.23,SSW,203,8.0,20.0,64,0.00,,,0.00,Wunderground v.1.12,2013-01-07 21:20:00,
2013-01-07 16:30:00,35.0,24.0,30.23,SSW,203,8.0,21.0,64,0.00,,,0.00,Wunderground v.1.12,2013-01-07 21:30:00,
2013-01-07 16:40:00,34.7,23.8,30.23,SW,216,9.0,9.0,64,0.00,,,0.00,Wunderground v.1.12,2013-01-07 21:40:00,
2013-01-07 16:50:00,34.6,24.0,30.23,SSW,212,6.0,11.0,65,0.00,,,0.00,Wunderground v.1.12,2013-01-07 21:50:00,
2013-01-07 17:00:00,34.1,23.9,30.22,SSW,203,7.0,16.0,66,0.00,,,0.00,Wunderground v.1.12,2013-01-07 22:00:00,
2013-01-07 17:10:00,33.5,23.7,30.22,SSW,193,6.0,8.0,67,0.00,,,0.00,Wunderground v.1.12,2013-01-07 22:10:00,
2013-01-07 17:20:00,33.4,23.6,30.22,SSW,203,6.0,13.0,67,0.00,,,0.00,Wunderground v.1.12,2013-01-07 22:20:00,
2013-01-07 17:30:00,32.9,23.8,30.21,SSW,203,5.0,12.0,69,0.00,,,0.00,Wunderground v.1.12,2013-01-07 22:30:00,
2013-01-07 17:40:00,32.5,23.8,30.21,SSW,209,5.0,5.0,70,0.00,,,0.00,Wunderground v.1.12,2013-01-07 22:40:00,
2013-01-07 17:50:00,32.2,23.8,30.21,SSW,202,5.0,5.0,71,0.00,,,0.00,Wunderground v.1.12,2013-01-07 22:50:00,
2013-01-07 18:00:00,31.9,23.9,30.22,SSW,203,4.0,15.0,72,0.00,,,0.00,Wunderground v.1.12,2013-01-07 23:00:00,
2013-01-07 18:10:00,31.8,23.8,30.22,SW,220,3.0,3.0,72,0.00,,,0.00,Wunderground v.1.12,2013-01-07 23:10:00,
2013-01-07 18:20:00,31.6,23.9,30.22,SSW,203,3.0,8.0,73,0.00,,,0.00,Wunderground v.1.12,2013-01-07 23:20:00,
2013-01-07 18:30:00,31.3,23.6,30.22,SSW,203,3.0,11.0,73,0.00,,,0.00,Wunderground v.1.12,2013-01-07 23:30:00,
2013-01-07 18:40:00,31.0,23.7,30.22,South,191,2.0,2.0,74,0.00,,,0.00,Wunderground v.1.12,2013-01-07 23:40:00,
2013-01-07 18:50:00,30.9,23.6,30.21,SW,224,3.0,3.0,74,0.00,,,0.00,Wunderground v.1.12,2013-01-07 23:50:00,
2013-01-07 19:00:00,30.7,23.7,30.22,SW,225,2.0,8.0,75,0.00,,,0.00,Wunderground v.1.12,2013-01-08 00:00:00,
2013-01-07 19:10:00,30.6,23.6,30.22,SSW,198,2.0,2.0,75,0.00,,,0.00,Wunderground v.1.12,2013-01-08 00:10:00,
2013-01-07 19:20:00,30.4,23.4,30.22,SSW,203,3.0,9.0,75,0.00,,,0.00,Wunderground v.1.12,2013-01-08 00:20:00,
2013-01-07 19:30:00,30.3,23.3,30.21,SSW,203,2.0,7.0,75,0.00,,,0.00,Wunderground v.1.12,2013-01-08 00:30:00,
2013-01-07 19:40:00,30.1,23.1,30.21,SSW,198,3.0,3.0,75,0.00,,,0.00,Wunderground v.1.12,2013-01-08 00:40:00,
2013-01-07 19:50:00,30.1,23.4,30.20,SSW,203,3.0,10.0,76,0.00,,,0.00,Wunderground v.1.12,2013-01-08 00:50:00,
2013-01-07 20:00:00,30.0,23.0,30.19,SW,225,3.0,9.0,75,0.00,,,0.00,Wunderground v.1.12,2013-01-08 01:00:00,
2013-01-07 20:10:00,30.0,23.0,30.19,SW,227,3.0,3.0,75,0.00,,,0.00,Wunderground v.1.12,2013-01-08 01:10:00,
2013-01-07 20:20:00,30.0,23.0,30.18,SSW,203,4.0,12.0,75,0.00,,,0.00,Wunderground v.1.12,2013-01-08 01:20:00,
2013-01-07 20:30:00,30.0,23.0,30.17,SSW,203,5.0,16.0,75,0.00,,,0.00,Wunderground v.1.12,2013-01-08 01:30:00,
2013-01-07 20:40:00,29.8,22.8,30.17,SW,224,4.0,4.0,75,0.00,,,0.00,Wunderground v.1.12,2013-01-08 01:40:00,
2013-01-07 20:50:00,29.7,22.7,30.18,SSW,209,3.0,3.0,75,0.00,,,0.00,Wunderground v.1.12,2013-01-08 01:50:00,
2013-01-07 21:10:00,29.5,22.9,30.17,SW,225,3.0,9.0,76,0.00,,,0.00,Wunderground v.1.12,2013-01-08 02:10:00,
2013-01-07 21:20:00,29.3,22.7,30.18,SW,220,2.0,3.0,76,0.00,,,0.00,Wunderground v.1.12,2013-01-08 02:20:00,
2013-01-07 21:30:00,29.1,22.5,30.18,SW,225,2.0,8.0,76,0.00,,,0.00,Wunderground v.1.12,2013-01-08 02:30:00,
2013-01-07 21:40:00,29.0,22.4,30.18,SSW,209,2.0,5.0,76,0.00,,,0.00,Wunderground v.1.12,2013-01-08 02:40:00,
2013-01-07 21:50:00,28.8,22.2,30.18,SW,216,3.0,4.0,76,0.00,,,0.00,Wunderground v.1.12,2013-01-08 02:50:00,
2013-01-07 22:00:00,28.8,22.2,30.17,SW,225,4.0,13.0,76,0.00,,,0.00,Wunderground v.1.12,2013-01-08 03:00:00,
2013-01-07 22:10:00,28.7,22.1,30.17,SSW,205,5.0,5.0,76,0.00,,,0.00,Wunderground v.1.12,2013-01-08 03:10:00,
2013-01-07 22:20:00,28.7,22.1,30.16,SSW,203,5.0,13.0,76,0.00,,,0.00,Wunderground v.1.12,2013-01-08 03:20:00,
2013-01-07 22:30:00,28.5,21.9,30.16,SSW,203,5.0,11.0,76,0.00,,,0.00,Wunderground v.1.12,2013-01-08 03:30:00,
2013-01-07 22:40:00,28.4,21.8,30.16,SW,220,5.0,5.0,76,0.00,,,0.00,Wunderground v.1.12,2013-01-08 03:40:00,
2013-01-07 22:50:00,28.2,21.9,30.15,SW,223,5.0,6.0,77,0.00,,,0.00,Wunderground v.1.12,2013-01-08 03:50:00,
2013-01-07 23:00:00,28.2,21.9,30.15,SSW,203,6.0,14.0,77,0.00,,,0.00,Wunderground v.1.12,2013-01-08 04:00:00,
2013-01-07 23:10:00,28.2,21.9,30.15,SW,216,6.0,8.0,77,0.00,,,0.00,Wunderground v.1.12,2013-01-08 04:10:00,
2013-01-07 23:20:00,28.2,21.6,30.15,SSW,208,6.0,6.0,76,0.00,,,0.00,Wunderground v.1.12,2013-01-08 04:20:00,
2013-01-07 23:30:00,28.2,21.9,30.15,SSW,203,6.0,14.0,77,0.00,,,0.00,Wunderground v.1.12,2013-01-08 04:30:00,
2013-01-07 23:40:00,28.2,21.6,30.15,South,188,7.0,7.0,76,0.00,,,0.00,Wunderground v.1.12,2013-01-08 04:40:00,
2013-01-07 23:50:00,28.2,21.9,30.14,SSW,203,6.0,13.0,77,0.00,,,0.00,Wunderground v.1.12,2013-01-08 04:50:00,